Regional Weather Roundup
Issued by NWS

Home | Current Version | Previous Version | Text Only | Print | Product List | Glossary On
Versions: 1 2 3 4 5 6 7 8 9 10 11 12 13 14 15 16 17 18 19 20 21 22 23 24 25 26 27 28 29 30 31 32 33 34 35 36 37 38 39 40 41 42 43 44 45 46 47 48 49 50
000
ASUS43 KTOP 270259
RWRKS

WEATHER ROUNDUP FOR KANSAS
NATIONAL WEATHER SERVICE GOODLAND KS
900 PM CST FRI DEC 26 2014

NOTE:  "FAIR" INDICATES FEW OR NO CLOUDS BELOW 12,000 FEET WITH NO
SIGNIFICANT WEATHER AND/OR OBSTRUCTIONS TO VISIBILITY.

KSZ001>006-013>018-027>032-041>047-270400-
NORTHWEST KANSAS

CITY           SKY/WX    TMP DP  RH WIND       PRES   REMARKS
GOODLAND       FLURRIES  18  16  92 NW8       30.09R
HAYS           CLOUDY    27  16  63 NW10      30.09R WCI  17
HILL CITY      LGT SNOW  24  19  81 N15       30.12R WCI  11
RUSSELL        CLOUDY    27  25  92 NW15      30.08R WCI  15
$$

KSZ061>065-074>080-084>089-270400-
SOUTHWEST KANSAS

CITY           SKY/WX    TMP DP  RH WIND       PRES   REMARKS
DODGE CITY     CLOUDY    26  22  84 NW12      30.10R WCI  16
ELKHART          N/A     19  13  77 NW6         N/A
GARDEN CITY    PTCLDY    19  18  95 NW7       30.11R
GREAT BEND     CLOUDY    28  21  74 NW10      30.10R WCI  19
LIBERAL        CLEAR     23  18  80 NW8       30.12S
$$

KSZ066>073-081>083-090>101-270400-
SOUTHEAST KANSAS

CITY           SKY/WX    TMP DP  RH WIND       PRES   REMARKS
CHANUTE        CLOUDY    42  38  85 NW6       29.99R
COFFEYVILLE    CLOUDY    45  40  82 N8        29.99R
HUTCHINSON     CLOUDY    32  28  85 NW13      30.07R WCI  22
MEDICINE LODGE   N/A     32  28  85 NW8       30.09R
NEWTON         CLOUDY    32  27  80 NW14      30.06R WCI  22
PARSONS        CLOUDY    44  40  85 N5        30.00S
WICHITA INTL   CLOUDY    35  30  82 NW13      30.08R WCI  26
WICHITA JABRA  CLOUDY    33  30  88 NW12      30.06R WCI  24
WICHITA MCCONL CLOUDY    34  32  93 NW9       30.07R
WINFIELD       CLOUDY    37  33  85 NW9       30.07R
$$

KSZ007>012-019>026-033>040-048>060-102>105-270400-
NORTHEAST KANSAS

CITY           SKY/WX    TMP DP  RH WIND       PRES   REMARKS
CONCORDIA      LGT SNOW  29  29 100 NW9       30.05R FOG
EMPORIA        CLOUDY    36  32  85 W8        30.02R
LAWRENCE       CLOUDY    38  33  82 N6        30.00R
MANHATTAN      CLOUDY    33  32  96 NW5       30.03R FOG
OLATHE IND     CLOUDY    39  35  86 NW7       29.99R
OLATHE EXE     CLOUDY    40  36  86 N5        29.96F
SALINA         CLOUDY    32  29  88 NW13      30.08R WCI  22
TOPEKA BILLARD CLOUDY    38  33  82 NW5       30.01S
TOPEKA FORBES  CLOUDY    38  32  79 N5        29.99S
$$


USA.gov is the U.S. government's official web portal to all federal, state and local government web resources and services.